Terminal Aerodrome Forecast
Issued by NWS

Home | Current Version | Previous Version | Graphics & Text | Print | Product List | Glossary On
Versions: 1 2 3 4 5 6 7 8 9 10 11 12 13 14 15 16 17 18 19 20 21 22 23 24 25 26 27 28 29
000
FTUS45 KGGW 192300
TAFGDV
TAF
KGDV 192320Z 2000/2024 21006KT P6SM VCSH SCT060 BKN120
     FM200400 02010KT P6SM BKN250
     FM201800 32011KT P6SM VCSH BKN035
      AMD LTD TO CLD VIS AND WIND=

USA.gov is the U.S. government's official web portal to all federal, state and local government web resources and services.